Tracking 19149 objects as of 21-Apr-2018
HD Live streaming from Space Station
objects crossing your sky now

FENGYUN 1C DEB

Track FENGYUN 1C DEB now!
10-day predictions


NORAD ID: 31381
Int'l Code: 1999-025BSM
Perigee: 644.9 km
Apogee: 959.4 km
Inclination: 98.6 °
Period: 100.8 minutes
Semi major axis: 7173 km
RCS: 0.0148 m2 (small)
Launch date: May 10, 1999
Source: People's Republic of China (PRC)
Launch site: Taiyaun Space Center, China (TSC)

Note: This is SATELLITE DEBRIS
aabbcc
Your satellite tracking list
Your tracking list is empty




NASA's NSSDC Master Catalog

Two Line Element Set (TLE):
1 31381U 99025BSM 18110.47060019  .00000183  00000-0  71555-4 0  9998
2 31381  98.6349 194.6373 0219235 346.0116  13.5053 14.29020092576210
Source of the keplerian elements: AFSPC